Location: Poughquag
(41.6090°N, 73.6820°W)
Time: 17:05:04
(UTC-04:00)

Tiros 1 despin weight - Visible Passes

Search period start: 16 July 2024 00:00
Search period end: 26 July 2024 00:00
Orbit: 576 x 620 km, 48.2° (Epoch: 16 July)

Date Brightness Start Highest point End Pass type
(mag) Time Alt. Az. Time Alt. Az. Time Alt. Az.
16 Jul ? 02:46:32 25° SE 02:46:32 25° SE 02:49:36 10° E visible
16 Jul ? 04:23:10 15° WSW 04:26:46 73° NNW 04:31:13 10° ENE visible
17 Jul ? 02:55:56 43° SE 02:55:56 43° SE 03:00:01 10° ENE visible
17 Jul ? 04:32:38 10° W 04:36:55 52° NNW 04:41:16 10° ENE visible
18 Jul ? 03:05:17 64° SSW 03:05:46 72° SSE 03:10:10 10° ENE visible
18 Jul ? 04:42:57 10° W 04:47:07 41° NNW 04:51:20 10° ENE visible
19 Jul ? 01:37:58 13° E 01:37:58 13° E 01:38:35 10° E visible
19 Jul ? 03:14:35 46° W 03:15:48 75° NNW 03:20:13 10° ENE visible
19 Jul ? 04:53:17 10° WNW 04:57:21 36° N 05:01:29 10° ENE visible
20 Jul ? 01:47:14 22° E 01:47:14 22° E 01:48:58 10° ENE visible
20 Jul ? 03:23:51 28° W 03:25:54 53° NNW 03:30:13 10° ENE visible
20 Jul ? 05:03:35 10° WNW 05:07:37 34° N 05:11:41 10° ENE visible
21 Jul ? 01:56:28 35° ENE 01:56:28 35° ENE 01:59:07 10° ENE visible
21 Jul ? 03:33:05 17° WNW 03:36:04 41° NNW 03:40:16 10° ENE visible
22 Jul ? 02:05:40 54° NE 02:05:40 54° NE 02:09:08 10° ENE visible
22 Jul ? 03:42:17 10° WNW 03:46:16 36° N 03:50:22 10° ENE visible
23 Jul ? 02:14:50 54° NNW 02:14:50 54° NNW 02:19:07 10° ENE visible
23 Jul ? 03:52:30 10° WNW 03:56:30 34° N 04:00:33 10° ENE visible
24 Jul ? 00:47:21 14° ENE 00:47:21 14° ENE 00:47:58 10° ENE visible
24 Jul ? 02:23:58 36° NW 02:24:56 41° NNW 02:29:07 10° ENE visible
24 Jul ? 04:02:39 10° WNW 04:06:42 36° N 04:10:48 10° ENE visible
25 Jul ? 00:56:28 21° ENE 00:56:28 21° ENE 00:57:58 10° ENE visible
25 Jul ? 02:33:05 23° WNW 02:35:07 36° N 02:39:10 10° ENE visible
25 Jul ? 04:12:43 10° WNW 04:16:52 41° NNE 04:21:05 10° E visible
